Погода в Золотореченске

Россия / Забайкальский край     51°03′10″N   116°44′16″E
В апреле 2022 года жителям России запретили посещать сайт meteo.paraplan.net по решению Генеральной прокуратуры. Аудитория сайта уменьшилась в 10 раз. Владельцы сайта не видят смысла в поддержке погодного сервера в таких условиях. Сайт будет закрыт в октябре.
темп.,
°C
ветер,
м/с
пор.,
м/с
влажн.,
%
обл.,
%
осадки,
мм/ч
давл.,
гПа
погр.,
м
5 октября, ср
ср500:00−5з1143100 0.0 102911
03:00−6з11505 0.0 102910
06:00−7зсз11605 0.0 103010
09:00−4з12485 0.0 1029193
12:000зсз343340 0.0 10271704
15:00+1зсз4531100 0.0 10252015
18:00−1зсз363845 0.0 1025356
21:00−5юз11565 0.0 102710
6 октября, чт
чт600:00−6юз11605 0.0 102710
03:00−6ююз11635 0.0 102610
06:00−7ююз11665 0.0 102510
09:00−3юз12502 0.0 1025147
12:00+1з33365 0.0 10221434
15:00+3з333342 0.0 10201726
18:000зсз24455 0.0 102182
21:00−4св00611 0.0 102310
7 октября, пт
пт700:00−5юв00613 0.0 102310
03:00−5ююз01624 0.0 102410
06:00−6ююз00645 0.0 102410
09:00−2зсз004827 0.0 102495
12:00+3зсз223278 0.0 10221393
15:00+4зсз3230100 0.0 10211838
18:000сз254399 0.0 1023111
21:00−4ссв225778 0.0 102611
8 октября, сб
сб800:00−4св116072 0.0 102711
03:00−5св226185 0.0 102820
06:00−5св226189 0.0 102930
09:00−2св234937 0.0 1029144
12:00+3св34365 0.0 10271260
15:00+5ссв333494 0.0 10261785
18:00+1ссв36485 0.0 1028174
21:00−3ссв23675 0.0 103239
9 октября, вс
вс900:00−4св22685 0.0 103214
03:00−4св11685 0.0 103310
06:00−4с116877 0.0 103310
09:00−1з115492 0.0 103297
12:00+3з3442100 0.0 1030688
15:00+4з4542100 0.0 1028997
18:00+1з245289 0.0 1028111
21:00−2юз1160100 0.0 102910